YAOGAN-29

Last updated on Mon Sep 21 2026 00:02:09 GMT+0000 (Coordinated Universal Time)

1 41038U 15069A 26263.64302345 .00000464 00000+0 63525-4 0 9991 2 41038 97.9990 292.4057 0002964 80.0908 280.0640 14.83147402584771
UTC large
Height (km)
Speed (km/s)
/
Latitude / Longitude
Inclination (degrees)
Orbital Period (minutes)
Azimuth
Elevation
Range (km)
Doppler Factor

Next 0 passes for location: London (51.5072 / 0.1276)

No passes found over London.
YAOGAN-29